Hourly Data Report for October 11, 2016

All times are specified in Local Standard Time (LST). Add 1 hour to adjust for Daylight Saving Time where and when it is observed.

FREDERICTON
NEW BRUNSWICK

45°52'08.000" N
66°32'14.000" W
20.70 m
8101505
71700
YFC

Download Data

Hourly Data (October 2016)
Hourly Data Report for October 11, 2016
Temp Definition
°C
Dew Point Temp Definition
°C
Rel Hum Definition
%
Wind Dir Definition
10's deg

Wind Spd Definition
km/h
Visibility Definition
km
Stn Press Definition
kPa
Hmdx Definition


Wind Chill Definition


Weather Definition


TIME
00:00 Legend Double Dagger 3.1 0.3 82 24 9 16.1 102.09     LegendNANA
01:00 Legend Double Dagger 3.8 0.1 77 26 8 16.1 102.14     LegendNANA
02:00 Legend Double Dagger 1.4 -0.3 89 22 11 16.1 102.20     LegendNANA
03:00 Legend Double Dagger 0.4 -0.7 92 21 11 16.1 102.26     LegendNANA
04:00 Legend Double Dagger 0.3 -0.9 92 23 11 16.1 102.33     LegendNANA
05:00 Legend Double Dagger 0.2 -0.9 92 23 9 16.1 102.40     LegendNANA
06:00 Legend Double Dagger 0.2 -0.9 93 25 8 16.1 102.51     LegendNANA
07:00 Legend Double Dagger 1.1 -0.8 87 LegendMM 4 16.1 102.55     LegendNANA
08:00 Legend Double Dagger 2.8 0.8 87 23 8 16.1 102.62     LegendNANA
09:00 Legend Double Dagger 5.5 1.1 73 LegendMM 5 16.1 102.68     LegendNANA
10:00 Legend Double Dagger 8.1 0.1 57 34 9 16.1 102.70     LegendNANA
11:00 Legend Double Dagger 9.9 1.0 54 LegendMM 4 16.1 102.70     LegendNANA
12:00 Legend Double Dagger 12.0 1.5 49 LegendMM 8 16.1 102.67     LegendNANA
13:00 Legend Double Dagger 13.1 1.3 45 LegendMM 5 16.1 102.60     LegendNANA
14:00 Legend Double Dagger 15.1 1.3 39 31 11 16.1 102.54     LegendNANA
15:00 Legend Double Dagger 15.6 -1.2 32 24 11 16.1 102.50     LegendNANA
16:00 Legend Double Dagger 15.6 0.8 36 27 8 16.1 102.49     LegendNANA
17:00 Legend Double Dagger 14.7 4.6 51 21 5 16.1 102.51     LegendNANA
18:00 Legend Double Dagger 9.4 6.1 80 18 5 16.1 102.52     LegendNANA
19:00 Legend Double Dagger 7.4 4.6 83 21 9 16.1 102.53     LegendNANA
20:00 Legend Double Dagger 6.9 4.2 83 19 9 16.1 102.55     LegendNANA
21:00 Legend Double Dagger 6.1 3.9 86 20 9 16.1 102.57     LegendNANA
22:00 Legend Double Dagger 5.3 3.5 88 20 8 16.1 102.59     LegendNANA
23:00 Legend Double Dagger 4.9 3.2 89 22 8 16.1 102.59     LegendNANA

Notes on Data Quality.

Legend

  • E = Estimated
  • M = Missing
  • NA = Not Available
  • ‡ = Partner data that is not subject to review by the National Climate Archives
Date modified: